Weather History for Gillette, WY

Change the Weather History Date:

Saturday, April 27, 2013

  Actual Average Record
Temperature  
Mean Temperature 55 °F 46 °F  
Max Temperature 75 °F 60 °F 81 °F (1952)
Min Temperature 35 °F 34 °F 17 °F (1984)
Degree Days  
Heating Degree Days 10 18  
Month to date heating degree days 816 615  
Since 1 July heating degree days 6903 6962  
Cooling Degree Days 0 0  
Month to date cooling degree days 0 0  
Year to date cooling degree days 0 0  
Growing Degree Days 6 (Base 50)    
Moisture  
Dew Point 29 °F    
Average Humidity 45    
Maximum Humidity 76    
Minimum Humidity 14    
Precipitation  
Precipitation 0.00 in 0.08 in 1.05 in (1990)
Month to date precipitation 1.54 1.24  
Year to date precipitation 2.95 2.98  
Sea Level Pressure  
Sea Level Pressure 29.94 in    
Wind  
Wind Speed 8 mph (West)    
Max Wind Speed 20 mph    
Max Gust Speed 24 mph    
Visibility 10 miles    
Events      
T = Trace of Precipitation, MM = Missing Value Source: NWS Daily Summary

Daily Weather History Graph

Daily Weather History Graph

Search for Another Location

Airport:

Trip Planner

Search our weather history database for the weather conditions in past years. The results will help you decide how hot, cold, wet, or windy it might be!

Date:

Astronomy

Apr. 27, 2013 Rise Set
Actual Time 5:58 AM MDT 8:01 PM MDT
Civil Twilight 5:27 AM MDT 8:33 PM MDT
Nautical Twilight 4:48 AM MDT 9:12 PM MDT
Astronomical Twilight 4:05 AM MDT 9:55 PM MDT
Moon 10:38 PM MDT (4/27) 7:15 AM MDT (4/27)
Length of Visible Light 15h 06m
Length of Day
14h 03m
Waning Gibbous, 95% of the Moon is Illuminated
Apr 27
Waning Gibbous
May 2
Last Quarter
May 9
New
May 17
First Quarter
May 24
Full

Hourly Weather History & Observations

Time (MDT) Temp. Windchill Dew Point Humidity Pressure Visibility Wind Dir Wind Speed Gust Speed Precip Events Conditions
12:53 AM 37.0 °F 34.5 °F 30.0 °F 76% 30.07 in 10.0 mi South 3.5 mph - N/A   Clear
1:53 AM 37.0 °F 32.4 °F 30.0 °F 76% 30.05 in 10.0 mi South 5.8 mph - N/A   Clear
2:53 AM 44.1 °F - 27.0 °F 51% 30.02 in 10.0 mi Calm Calm - N/A   Clear
3:53 AM 46.9 °F - 27.0 °F 46% 30.01 in 10.0 mi Calm Calm - N/A   Clear
4:53 AM 42.1 °F 38.4 °F 28.9 °F 60% 30.02 in 10.0 mi WNW 5.8 mph - N/A   Clear
5:53 AM 43.0 °F 36.4 °F 28.0 °F 56% 30.02 in 10.0 mi West 12.7 mph - N/A   Clear
6:53 AM 48.9 °F - 28.9 °F 46% 30.03 in 10.0 mi West 9.2 mph - N/A   Clear
7:53 AM 55.9 °F - 30.9 °F 39% 30.05 in 10.0 mi WNW 13.8 mph - N/A   Unknown
8:53 AM 62.1 °F - 30.0 °F 30% 30.04 in 10.0 mi WNW 9.2 mph - N/A   Clear
9:53 AM 64.9 °F - 30.0 °F 27% 30.03 in 10.0 mi NNW 12.7 mph - N/A   Clear
10:53 AM 66.9 °F - 28.0 °F 23% 30.02 in 10.0 mi NW 17.3 mph - N/A   Clear
11:53 AM 69.1 °F - 28.9 °F 22% 30.00 in 10.0 mi NW 11.5 mph - N/A   Clear
12:53 PM 69.1 °F - 28.0 °F 22% 29.98 in 10.0 mi SW 12.7 mph 18.4 mph N/A   Clear
1:53 PM 71.1 °F - 28.0 °F 20% 29.94 in 10.0 mi SSW 15.0 mph 20.7 mph N/A   Clear
2:53 PM 73.0 °F - 25.0 °F 17% 29.88 in 10.0 mi SW 8.1 mph - N/A   Clear
3:53 PM 73.9 °F - 24.1 °F 16% 29.84 in 10.0 mi Calm Calm - N/A   Clear
4:53 PM 75.0 °F - 23.0 °F 14% 29.83 in 10.0 mi Variable 5.8 mph - N/A   Clear
5:53 PM 71.1 °F - 28.0 °F 20% 29.83 in 10.0 mi NW 12.7 mph - N/A   Clear
6:53 PM 68.0 °F - 30.0 °F 24% 29.82 in 10.0 mi WNW 6.9 mph - N/A   Clear
7:53 PM 57.0 °F - 34.0 °F 42% 29.82 in 10.0 mi West 6.9 mph - N/A   Clear
8:53 PM 50.0 °F - 34.0 °F 54% 29.83 in 10.0 mi SW 4.6 mph - N/A   Clear
9:53 PM 50.0 °F - 33.1 °F 52% 29.81 in 10.0 mi Calm Calm - N/A   Clear
10:53 PM 45.0 °F 43.5 °F 33.1 °F 63% 29.82 in 10.0 mi SW 3.5 mph - N/A   Clear
11:53 PM 52.0 °F - 30.0 °F 43% 29.78 in 10.0 mi SW 4.6 mph - N/A   Clear